Regional Weather Roundup
Issued by NWS

Home | Current Version | Previous Version | Graphics & Text | Print | Product List | Glossary On
Versions: 1 2 3 4 5 6 7 8 9 10 11 12 13 14 15 16 17 18 19 20 21 22 23 24 25 26 27 28 29 30 31 32 33 34 35 36 37 38 39 40 41 42 43 44 45 46 47 48 49 50
000
ASUS44 KMEG 230600
RWRTN
TENNESSEE HOURLY STATE WEATHER ROUNDUP
NATIONAL WEATHER SERVICE MEMPHIS TN
1200 AM CST THU FEB 23 2017

TNZ002-004-019-021-049-052-054-088>092-230700-
WEST TENNESSEE

CITY           SKY/WX    TMP DP  RH WIND       PRES   REMARKS
MEMPHIS INTL   CLEAR     59  55  87 S7        29.82F
NWS MEMPHIS      N/A     61 N/A N/A MISG        N/A
JACKSON        CLEAR     60  57  89 S6        29.82F
UNION CITY     CLEAR     57  57 100 CALM      29.79S
PARIS          CLEAR     55  54  94 S5        29.82S
$$

TNZ008-025-027-028-033-062-065-066-230700-
NORTH MIDDLE TENNESSEE

CITY           SKY/WX    TMP DP  RH WIND       PRES   REMARKS
NASHVILLE      CLEAR     55  53  93 S5        29.85S
CLARKSVILLE    PTCLDY    56  53  90 S5        29.81F
SMYRNA         FOG       51  50  96 CALM      29.87R VSB 1
CROSSVILLE     FOG       52  52 100 CALM      29.90R VSB 1/4
$$

TNZ061-075-076-078-094-096-097-230700-
SOUTH MIDDLE TENNESSEE

CITY           SKY/WX    TMP DP  RH WIND       PRES   REMARKS
TULLAHOMA      CLEAR     50  50 100 CALM      29.88R
WINCHESTER     CLEAR     52  52 100 E6        29.87S
MCMINNVILLE    MOCLDY    48  48 100 CALM      29.87R VSB 1/2
COLUMBIA       CLEAR    N/A N/A N/A CALM      29.84S
SHELBYVILLE    CLEAR     55  55 100 CALM      29.87S
$$

TNZ017-018-042-046-047-230700-
NORTHEAST TENNESSEE

CITY           SKY/WX    TMP DP  RH WIND       PRES   REMARKS
TRI CITIES     FOG       46  45  96 CALM      29.92S VSB 1/4
$$

TNZ012-013-036-069-073-074-230700-
CENTRAL EAST TENNESSEE

CITY           SKY/WX    TMP DP  RH WIND       PRES   REMARKS
KNOXVILLE      FOG       54  53  97 NE3       29.88F VSB 1/8
OAK RIDGE      FOG       51  50  96 CALM      29.91S VSB 1/4
GATLINBURG     CLOUDY    54  54 100 CALM      29.90S VSB 1/4
$$

TNZ083-085-099-230700-
SOUTHEAST TENNESSEE

CITY           SKY/WX    TMP DP  RH WIND       PRES   REMARKS
CHATTANOOGA    MOCLDY    55  53  93 CALM      29.88F
$$

SKY/WX REPORTED AS FAIR MEANS FEW OR NO CLOUDS BELOW
12 THOUSAND FEET.




USA.gov is the U.S. government's official web portal to all federal, state and local government web resources and services.